World > North America > United States > Mississippi

Kolola Springs, Mississippi Regional Weather

Lat: 33.69N, Lon: 88.33W
Wx Zone: MSZ031Web Search

Pass this page to a friend. Tell them to point their camera at the QR Code near the bottom of this page.

Feedback


°F Click to change Kolola Springs hourly weather to Imperial units.Click to change Kolola Springs hourly weather to Metric units. °C
Kolola Springs Weather Map
UTC Time: 4/14/2021, 15:04
Your Time:

Kolola Springs, MS Regional Weather

Expires:202104141500;;541797
ASUS44 KJAN 141410
RWRMS 

MISSISSIPPI HOURLY WEATHER ROUNDUP
NATIONAL WEATHER SERVICE JACKSON MS
900 AM CDT WED APR 14 2021

NOTE: "FAIR: INDICATES FEW OR NO CLOUDS BELOW 12,000 FEET WITH NO
SIGNIFICANT WEATHER AND/OR OBSTRUCTIONS TO VISIBILITY.


MSZ003>006-009-014>017-022>024-029>033-037>039-141500-
NORTHEAST MISSISSIPPI
  
CITY           SKY/WX    TMP DP  RH WIND       PRES   REMARKS
ABERDEEN       FAIR      63  57  82 CALM      30.10R                  
COLUMBUS AFB   SUNNY     62  56  81 CALM      30.07                   
CORINTH        PTSUNNY   57  45  62 NE10      30.11F                  
GOLDN TRIANGLE MOSUNNY   62  57  83 CALM      30.10R                  
STARKVILLE     FAIR      63  55  77 CALM      30.10R                  
TUPELO         MOSUNNY   60  55  83 N12       30.09R                  
$$


SKY/WX - Weather  TMP - Temperature  DP - Dew Point  RH - Relative Humidity
WIND - Wind Direction/Speed PRES - Barometric Pressure VSB - Visibility
WCI - Wind Chill Index E13G22 Wind - East Wind 13 mph/Gusts of 22 mph